Victoria, British Columbia

9:56 AM PST on February 21, 2017 (GMT -0800)
Victoria International

Weather History for CYYJ - December, 2012

Change the Weather History Date:

Thursday, December 20, 2012

  Actual Average Record
Temperature  
Mean Temperature 38 °F -  
Max Temperature 44 °F 44 °F 56 °F (2014)
Min Temperature 33 °F 33 °F 19 °F (2008)
Degree Days  
Heating Degree Days 26    
Moisture  
Dew Point 38 °F    
Average Humidity 90    
Maximum Humidity 100    
Minimum Humidity 76    
Precipitation  
Precipitation 0.20 in 0.19 in - ()
Sea Level Pressure  
Sea Level Pressure 29.61 in    
Wind  
Wind Speed 8 mph ()    
Max Wind Speed 21 mph    
Max Gust Speed 31 mph    
Visibility 16.3 miles    
Events Rain    
Averages and records for this station are not official NWS values.
T = Trace of Precipitation, MM = Missing Value Source: Averaged Metar Reports

Daily Weather History Graph

Daily Weather History Graph

Search for Another Location

Airport or City:

Trip Planner

Search our weather history database for the weather conditions in past years. The results will help you decide how hot, cold, wet, or windy it might be!

Date:

Astronomy

Dec. 20, 2012 Rise Set
Actual Time 8:03 AM PST 4:20 PM PST
Civil Twilight 7:26 AM PST 4:57 PM PST
Nautical Twilight 6:45 AM PST 5:37 PM PST
Astronomical Twilight 6:07 AM PST 6:15 PM PST
Moon 12:04 PM PST (12/20) 12:29 AM PST (12/20)
Length of Visible Light 9h 30m
Length of Day
8h 16m
First Quarter, 56% of the Moon is Illuminated
Dec 20
First Quarter
Dec 28
Full
Jan 4
Last Quarter
Jan 11
New
Jan 18
First Quarter

Hourly Weather History & Observations

Time (PST) Temp. Windchill Dew Point Humidity Pressure Visibility Wind Dir Wind Speed Gust Speed Precip Events Conditions
12:00 AM 42.8 °F 34.8 °F 39.2 °F 87% 29.54 in 12.0 mi SE 17.3 mph 24.2 mph N/A Rain Light Rain
1:00 AM 41.0 °F 33.5 °F 39.2 °F 93% 29.51 in 8.0 mi SE 13.8 mph 21.9 mph N/A Rain Light Rain
2:00 AM 41.0 °F 31.6 °F 39.2 °F 93% 29.48 in 10.0 mi SSE 20.7 mph 31.1 mph N/A Rain Light Rain
3:00 AM 41.0 °F 33.5 °F 39.2 °F 93% 29.48 in 15.0 mi SSE 13.8 mph 21.9 mph N/A Rain Light Rain
3:19 AM 41.0 °F 32.8 °F - N/A% - 15.0 mi SSE 16.1 mph 21.9 mph N/A Rain Light Rain
4:00 AM 41 °F - 39 °F 88% 29.49 in 15 mi SSE 11.5 mph - - Rain Light Rain
4:00 AM 41.0 °F 34.7 °F 39.2 °F 93% 29.49 in 15.0 mi South 10.4 mph 17.3 mph N/A Rain Light Rain
4:26 AM 41.0 °F 35.2 °F - N/A% - 15.0 mi SSE 9.2 mph - N/A   Overcast
5:00 AM 39.2 °F 35.9 °F 37.4 °F 93% 29.48 in 15.0 mi South 4.6 mph - N/A   Overcast
6:00 AM 37.4 °F - 37.4 °F 100% 29.47 in 15.0 mi SW 2.3 mph - N/A   Overcast
7:00 AM 39.2 °F 35.9 °F 39.2 °F 100% 29.50 in 15.0 mi SSE 4.6 mph - N/A   Overcast
8:00 AM 39.2 °F 37.0 °F 37.4 °F 93% 29.52 in 20.0 mi SSW 3.5 mph - N/A   Overcast
9:00 AM 39.2 °F 37.0 °F 37.4 °F 93% 29.51 in 20.0 mi West 3.5 mph - N/A Rain Light Rain
10:00 AM 40 °F - 39 °F 96% 29.54 in 15 mi SSE 2.3 mph - - Rain Light Rain
10:00 AM 41.0 °F - 39.2 °F 93% 29.54 in 15.0 mi SSE 2.3 mph - N/A Rain Light Rain
11:00 AM 41.0 °F - 41.0 °F 100% 29.55 in 20.0 mi Calm Calm - N/A Rain Light Rain
12:00 PM 42.8 °F 41.1 °F 39.2 °F 87% 29.57 in 20.0 mi SSW 3.5 mph - N/A Rain Light Rain
12:41 PM 42.8 °F 40.1 °F - N/A% - 30.0 mi SSE 4.6 mph - N/A   Overcast
1:00 PM 42.8 °F - 39.2 °F 87% 29.59 in 30.0 mi Calm Calm - N/A   Mostly Cloudy
2:00 PM 42.8 °F 40.1 °F 39.2 °F 87% 29.61 in 30.0 mi South 4.6 mph - N/A   Mostly Cloudy
3:00 PM 44.6 °F 43.1 °F 37.4 °F 76% 29.65 in 30.0 mi SSE 3.5 mph - N/A   Mostly Cloudy
4:00 PM 41 °F - 38 °F 87% 29.68 in 28 mi SSE 5.8 mph - -   Partly Cloudy
4:00 PM 41.0 °F 37.1 °F 39.2 °F 93% 29.68 in 30.0 mi SSE 5.8 mph - N/A   Mostly Cloudy
4:36 PM 41.0 °F 33.1 °F - N/A% - 30.0 mi SSW 15.0 mph - N/A Rain Light Rain
5:00 PM 41.0 °F 35.2 °F 37.4 °F 87% 29.72 in 20.0 mi WSW 9.2 mph - N/A Rain Light Rain
5:43 PM 37.4 °F 33.8 °F - N/A% - 30.0 mi NW 4.6 mph - N/A   Scattered Clouds
6:00 PM 37.4 °F - 35.6 °F 93% 29.73 in 30.0 mi Calm Calm - N/A   Mostly Cloudy
7:00 PM 41.0 °F 35.2 °F 33.8 °F 76% 29.74 in 30.0 mi South 9.2 mph - N/A   Mostly Cloudy
8:00 PM 37.4 °F - 33.8 °F 87% 29.76 in 30.0 mi Calm Calm - N/A   Scattered Clouds
8:31 PM 35.6 °F - - N/A% - 30.0 mi SE 2.3 mph - N/A   Scattered Clouds
9:00 PM 33.8 °F - 32.0 °F 93% 29.78 in 20.0 mi South 2.3 mph - N/A   Mostly Cloudy
10:00 PM 38 °F - 36 °F 88% 29.79 in 19 mi SE 9.2 mph - -   Partly Cloudy
10:00 PM 39.2 °F 33.0 °F 35.6 °F 87% 29.79 in 20.0 mi ESE 9.2 mph - N/A   Mostly Cloudy
11:00 PM 41.0 °F 34.7 °F 37.4 °F 87% 29.80 in 20.0 mi ESE 10.4 mph - N/A   Mostly Cloudy